SCP
0 0 0 0 0 0 0 0 0 0 0 0 0 0 0 0 0 1 1 1 1 0 0 0 1 1 1 0 0 1 1 1 1 1 1 1 1 1 1 1 1 1 1
0 0 0 0 0 0 0 0 0 0 0 0 0 0 0 0 0 1 1 1 1 0 0 0 0 1 0 0 0 0 1 1 1 1 1 1 1 1 1 1 1 1 1
0 0 1 0 0 0 0 0 0 0 0 0 0 0 0 0 1 1 1 1 1 0 0 0 0 0 0 0 0 0 1 1 1 1 1 0 1 1 1 1 1 1 1
0 1 1 1 0 0 0 0 0 0 0 0 0 0 1 1 1 1 1 1 1 0 0 0 0 0 0 0 0 0 0 0 0 0 0 0 0 1 1 1 1 1 1
1 1 1 1 1 0 0 0 0 0 1 1 1 1 1 1 1 1 1 1 1 1 0 0 0 0 0 0 0 0 0 0 0 0 0 0 0 0 1 1 1 1 1
1 1 1 1 1 1 1 0 0 1 1 1 1 1 1 1 1 1 1 1 1 1 1 0 0 0 0 0 0 0 0 0 0 0 0 0 0 0 0 0 1 1 1
1 1 1 1 1 1 1 1 1 1 1 1 1 1 1 1 1 1 1 1 1 1 1 0 0 0 0 1 1 1 0 0 0 0 0 0 0 0 0 0 1 1 1
1 1 1 1 1 1 1 1 1 1 1 1 2 2 1 1 1 1 1 1 1 1 1 1 1 1 1 1 1 1 1 0 0 0 0 0 1 1 1 1 1 1 1
1 1 1 1 1 1 1 1 1 1 1 1 2 2 2 1 1 1 1 1 1 1 1 1 1 1 1 1 1 1 1 1 1 0 0 1 1 1 1 1 1 1 1
1 1 1 1 1 1 1 1 1 1 1 1 1 2 2 1 1 1 1 1 1 1 1 1 1 1 1 1 1 1 1 1 1 1 1 1 1 1 1 1 1 1 1
1 1 2 2 1 1 1 1 1 1 1 1 1 2 2 1 1 1 1 1 1 1 1 1 1 1 1 1 0 0 0 1 1 1 1 1 1 1 1 1 1 1 1
1 1 1 2 2 2 1 1 1 1 1 1 1 1 1 1 1 1 1 1 1 0 0 0 0 0 0 0 0 0 1 1 1 1 1 1 1 1 1 1 1 1 1
1 1 1 1 1 2 2 1 1 1 1 1 1 1 1 2 1 1 1 1 1 0 0 0 0 0 0 0 0 0 1 1 1 1 1 1 1 1 1 1 1 1 1
1 1 1 1 1 1 2 2 1 1 1 1 1 1 1 2 2 1 1 1 1 0 0 0 0 0 0 0 0 0 0 1 1 1 1 1 1 1 1 1 1 1 1
1 1 1 1 1 1 2 2 1 1 1 1 1 1 1 1 1 1 1 1 0 0 0 0 0 0 0 0 0 0 0 1 1 1 1 1 1 1 1 1 2 1 1
1 1 1 1 1 1 2 2 1 1 1 1 1 1 1 1 1 1 1 0 0 0 0 0 0 1 1 0 0 0 0 0 1 1 1 1 1 1 1 1 2 2 2
1 1 1 1 1 1 2 2 2 1 1 1 1 1 1 1 1 1 0 0 0 0 0 0 1 1 1 1 1 0 0 1 1 0 0 0 1 1 1 1 1 2 2
1 1 1 1 1 1 2 2 2 1 1 1 1 1 0 0 0 0 0 0 0 0 0 0 1 1 1 1 1 1 1 1 1 0 0 0 0 0 1 1 1 2 2
1 1 1 1 1 2 2 2 2 1 1 1 1 1 0 0 0 0 0 0 0 0 0 0 0 1 1 1 1 1 1 1 1 0 0 0 0 0 0 1 1 1 1
1 1 1 1 1 2 2 2 2 2 1 1 1 1 1 0 0 0 0 0 0 0 0 0 0 1 1 2 1 1 1 1 1 1 0 0 0 0 0 1 1 1 1
1 1 1 1 1 2 3 3 2 2 1 1 1 1 1 0 0 0 0 0 0 0 0 0 0 0 1 1 1 1 1 1 1 1 0 0 0 0 1 1 1 1 1
1 1 1 1 1 2 3 3 3 2 2 1 1 1 1 0 0 0 0 0 0 0 0 0 0 0 1 1 1 1 1 1 1 0 0 0 0 1 1 1 1 1 1
1 1 1 1 1 2 2 3 3 2 2 2 2 1 1 1 0 0 0 0 0 0 0 0 0 0 0 1 2 1 1 1 0 0 0 0 0 0 1 1 1 1 1
1 1 1 1 1 2 2 2 3 2 2 2 2 2 1 0 0 1 1 0 0 0 0 0 0 0 0 1 1 1 1 1 0 0 0 0 0 0 0 1 1 1 1
1 1 1 1 1 2 2 2 2 2 2 2 3 2 1 0 0 0 1 0 0 0 0 0 0 0 0 1 1 1 1 1 1 0 0 0 0 0 0 0 0 0 0
1 1 1 1 1 1 2 2 1 1 2 2 2 2 1 0 0 0 0 0 0 0 0 0 1 1 1 1 1 1 1 1 1 0 0 0 0 0 0 0 0 0 0
Wind_Speed
3 4 6 5 6 7 7 8 8 9 9 9 10 10 10 10 10 10 10 10 10 10 10 10 10 10 10 11 11 10 10 10 9 9 9 9 8 8 8 7 5 7 11
4 4 6 6 7 7 8 8 9 9 9 10 10 10 9 10 10 10 10 10 10 10 10 10 10 10 10 10 10 10 10 10 9 9 8 8 8 8 8 7 7 7 10
4 4 6 7 7 8 8 9 9 9 9 9 9 9 9 9 10 10 10 10 10 10 10 9 10 10 10 10 10 10 10 9 9 7 4 5 8 9 8 8 8 9 9
5 5 7 7 7 8 8 9 9 10 9 9 9 9 9 9 10 10 10 10 10 10 10 9 10 9 9 10 10 10 10 10 8 4 4 7 8 10 8 8 8 8 8
5 5 8 6 7 7 8 9 9 9 9 9 9 9 9 10 10 9 9 10 10 10 10 9 9 10 10 11 11 10 10 9 6 5 7 7 7 10 9 9 8 8 8
6 6 8 6 7 7 8 8 8 8 8 9 9 9 10 10 10 10 10 9 9 9 9 9 9 9 10 11 10 10 9 7 5 6 6 6 7 10 9 9 8 8 8
6 6 8 7 7 7 8 8 8 8 8 9 9 9 10 10 10 10 10 9 9 9 9 9 9 9 10 10 10 10 8 5 6 6 6 7 8 10 9 9 9 8 8
6 6 7 8 7 7 7 8 8 7 8 9 9 10 10 10 10 10 10 10 10 10 10 9 9 9 10 10 9 9 8 4 6 6 7 7 10 9 9 9 8 8 8
5 5 5 6 7 8 8 8 8 8 9 9 9 10 10 10 10 10 10 10 10 11 11 10 10 9 10 10 10 9 8 5 5 5 6 6 9 9 9 9 8 8 7
5 5 5 5 5 5 7 8 8 9 9 9 9 9 8 8 9 9 9 11 11 12 12 11 11 11 10 10 10 8 4 2 5 6 5 7 9 8 9 9 9 9 8
5 4 5 5 5 4 5 7 7 8 7 6 8 7 4 5 7 7 11 11 11 12 11 11 11 10 9 9 8 5 2 4 6 5 6 9 9 9 9 9 9 9 9
5 5 4 4 4 4 4 5 4 5 5 4 5 5 4 5 5 6 9 10 10 9 10 9 7 6 3 5 5 2 3 5 5 5 7 10 10 10 9 10 10 10 10
5 4 4 4 4 5 4 4 3 3 3 4 5 5 4 4 4 4 4 5 5 5 5 6 4 4 5 5 4 5 5 4 4 5 8 10 10 9 9 10 10 10 10
4 4 4 3 4 4 5 4 3 3 3 3 3 5 4 3 3 4 3 3 3 3 4 3 3 5 5 5 5 6 6 4 4 4 7 11 10 10 10 10 10 10 10
5 4 4 3 3 4 4 3 3 3 3 3 3 3 4 3 3 4 3 3 3 3 3 3 3 5 5 5 5 5 6 6 5 5 5 10 10 10 9 9 9 9 9
5 4 5 3 3 3 3 3 3 3 3 2 2 3 4 3 3 3 4 3 3 3 3 3 4 3 3 4 4 5 5 5 5 5 5 7 10 10 9 8 8 9 9
4 4 5 4 3 3 3 3 2 2 2 2 2 2 3 3 3 3 3 3 3 3 3 3 4 3 3 3 4 4 4 4 4 5 4 4 5 8 9 8 8 8 8
4 4 5 4 4 4 3 2 2 2 2 2 2 2 3 3 3 3 2 2 3 2 2 2 2 2 2 2 3 3 3 3 4 4 3 4 4 4 7 9 8 7 7
4 5 5 5 5 4 4 3 2 2 2 1 2 2 1 2 2 2 2 2 2 2 2 2 2 1 2 2 2 2 2 2 3 3 3 4 4 3 4 6 7 7 7
5 5 5 5 4 5 3 3 2 2 2 1 1 1 1 1 2 2 2 2 2 1 1 1 2 1 1 1 1 2 2 2 2 2 2 3 3 3 4 3 3 5 6
5 5 5 5 5 4 3 3 2 2 2 2 1 2 2 1 1 1 1 1 1 1 1 1 1 1 1 0 1 2 2 2 2 2 1 2 3 3 2 3 2 2 3
6 6 6 6 5 4 3 2 2 2 1 2 1 2 2 1 1 1 2 2 2 1 2 1 1 1 0 1 1 1 1 3 2 2 1 1 2 2 2 2 3 2 2
6 6 5 6 6 5 4 2 2 2 2 2 2 2 2 2 1 2 2 2 2 2 2 2 2 2 1 1 1 2 2 1 1 2 2 1 1 1 1 1 2 2 2
7 6 6 6 5 5 5 4 4 3 3 2 2 2 3 2 2 2 2 2 3 2 2 3 3 2 2 2 1 2 2 2 2 1 2 2 1 0 0 0 1 1 2
7 6 5 5 5 4 4 4 4 4 2 2 2 3 3 2 3 3 3 3 3 2 2 2 2 2 2 2 1 1 1 1 3 2 1 1 1 1 0 1 0 0 1
6 6 5 5 5 5 5 5 5 4 4 3 3 3 2 2 2 3 3 3 3 2 3 3 3 3 3 2 2 2 2 2 2 1 2 1 1 0 0 0 1 0 0
Wind_Direction
57 55 55 59 70 67 67 69 72 70 72 77 80 83 85 85 85 86 87 85 83 82 82 77 75 76 78 77 76 75 73 74 78 83 87 89 91 94 94 95 104 104 97
70 69 72 69 72 70 74 75 77 73 72 76 79 82 85 87 88 87 86 84 84 82 78 77 76 76 77 76 76 74 72 74 77 80 85 93 90 92 92 86 79 90 99
82 78 92 79 78 76 75 77 77 77 75 77 80 82 85 87 89 87 85 85 83 81 80 79 77 77 77 76 76 74 72 73 75 79 90 89 91 86 86 89 97 101 102
83 80 79 79 77 79 77 77 78 81 80 78 80 81 83 85 87 87 86 86 85 81 80 78 77 78 77 76 74 72 73 74 71 68 77 73 79 81 82 87 97 102 102
86 80 82 78 82 82 82 82 81 84 85 83 82 80 81 82 84 85 85 85 85 84 80 76 75 76 77 77 76 73 72 74 73 64 66 69 72 78 79 80 84 94 95
92 85 86 80 84 84 83 84 86 85 84 83 82 80 80 80 81 82 82 84 87 85 81 78 76 74 75 76 74 73 72 71 76 67 68 70 72 76 76 79 83 86 91
92 87 88 82 83 84 81 80 83 85 81 81 81 81 82 81 79 80 81 82 85 84 80 78 77 75 75 75 73 73 71 61 68 71 68 68 69 70 73 79 80 82 83
92 91 97 99 88 84 83 80 77 80 79 79 80 81 82 82 80 80 81 80 81 79 76 75 76 75 75 75 74 72 62 31 78 72 69 69 67 71 74 78 79 82 83
94 91 90 100 110 108 92 84 83 83 80 79 79 81 82 83 80 80 79 77 77 76 75 75 76 75 74 73 71 69 60 31 59 66 70 68 68 68 72 76 81 81 80
100 96 92 91 92 106 107 94 88 85 81 82 81 81 89 100 94 87 88 79 76 75 74 74 74 74 75 73 70 68 60 58 59 65 60 68 67 68 70 73 76 77 76
104 97 91 90 89 88 96 110 112 105 96 108 102 95 105 91 91 95 76 78 77 77 76 76 76 77 83 85 74 64 48 62 66 60 57 60 64 68 71 74 74 73 71
116 104 97 92 89 88 95 109 106 101 101 91 88 92 85 81 77 82 92 83 82 87 88 81 82 93 84 86 96 114 70 70 65 64 61 56 60 64 72 77 76 75 72
119 115 103 97 91 87 95 98 97 94 95 89 86 91 88 90 98 91 101 109 101 100 88 93 96 72 69 65 64 70 62 57 61 62 60 54 58 64 72 79 77 76 75
132 122 112 104 97 93 92 95 102 104 96 88 89 91 89 81 83 86 87 81 79 77 72 67 67 75 73 74 70 71 73 64 58 64 61 53 56 63 71 76 77 75 76
150 147 124 120 101 98 97 102 109 103 97 96 92 99 99 95 90 93 89 79 74 76 84 76 71 68 68 66 62 61 66 70 70 69 73 62 55 58 67 73 75 76 77
164 154 140 142 124 118 116 118 104 102 103 95 97 102 99 98 95 89 86 80 71 68 67 75 77 76 72 66 65 64 59 65 68 74 78 82 67 56 57 66 70 69 71
170 164 147 152 151 139 119 103 104 104 100 98 96 100 101 95 95 93 84 84 81 80 78 69 74 70 76 81 76 68 65 59 65 69 68 67 83 76 60 59 65 67 67
173 171 157 164 168 154 139 128 120 110 100 107 104 99 105 107 99 89 85 84 81 73 73 74 71 77 79 75 73 69 76 79 72 71 77 76 66 72 77 61 58 62 65
181 177 171 169 169 161 150 145 133 123 119 120 116 110 108 109 114 105 88 92 95 85 75 76 66 64 79 80 82 75 72 76 77 78 76 73 76 74 81 91 75 58 53
182 177 169 166 174 159 161 159 142 134 133 129 122 129 111 127 128 114 133 132 117 115 95 93 91 76 73 83 91 88 89 97 88 69 65 72 71 70 62 68 92 90 69
181 179 168 173 169 167 169 180 170 162 154 143 145 140 140 161 164 144 173 150 152 152 145 139 128 138 143 127 169 134 128 105 89 97 74 72 81 69 71 65 54 59 98
185 184 180 177 172 171 179 185 183 169 170 137 158 161 169 186 198 197 210 195 187 183 193 177 195 245 166 238 282 254 175 151 141 110 116 90 81 84 60 57 59 61 43
192 190 187 182 176 173 172 172 171 170 187 178 178 172 189 201 207 229 231 222 215 218 202 207 212 225 235 242 289 306 300 19 121 149 120 124 100 101 106 70 58 58 59
194 193 191 181 178 174 172 185 194 203 208 209 198 187 195 203 208 217 225 229 218 225 212 214 216 224 238 240 212 288 314 346 288 173 167 144 125 134 65 75 52 64 67
189 188 188 180 179 181 189 197 216 222 221 210 199 196 201 197 211 217 225 228 226 222 226 223 222 231 228 249 243 232 233 242 269 281 260 194 173 154 38 324 304 56 68
185 182 185 188 185 185 199 206 215 218 218 209 213 213 215 206 215 216 220 222 225 228 227 227 223 222 241 243 252 249 249 253 261 261 263 252 250 110 205 249 264 145 101